Year,Month,Day,Hour,Minute,Value (Times are PST for temperature in C)
2016,05,05,00,00,10.40
2016,05,05,00,01,10.40
2016,05,05,00,02,10.40
2016,05,05,00,03,10.40
2016,05,05,00,04,10.40
2016,05,05,00,05,10.40
2016,05,05,00,06,10.40
2016,05,05,00,07,10.30
2016,05,05,00,08,10.30
2016,05,05,00,09,10.30
2016,05,05,00,10,10.30
2016,05,05,00,11,10.20
2016,05,05,00,12,10.20
2016,05,05,00,13,10.10
2016,05,05,00,14,10.10
2016,05,05,00,15,10.10
2016,05,05,00,16,10.00
2016,05,05,00,17,9.90
2016,05,05,00,18,9.90
2016,05,05,00,19,9.90
2016,05,05,00,20,9.80
2016,05,05,00,21,9.80
2016,05,05,00,22,9.80
2016,05,05,00,23,9.80
2016,05,05,00,24,9.80
2016,05,05,00,25,9.80
2016,05,05,00,26,9.80
2016,05,05,00,27,9.80
2016,05,05,00,28,9.80
2016,05,05,00,29,9.70
2016,05,05,00,30,9.70
2016,05,05,00,31,9.80
2016,05,05,00,32,9.80
2016,05,05,00,33,9.80
2016,05,05,00,34,9.80
2016,05,05,00,35,9.80
2016,05,05,00,36,9.80
2016,05,05,00,37,9.80
2016,05,05,00,38,9.80
2016,05,05,00,39,9.70
2016,05,05,00,40,9.70
2016,05,05,00,41,9.70
2016,05,05,00,42,9.70
2016,05,05,00,43,9.70
2016,05,05,00,44,9.70
2016,05,05,00,45,9.70
2016,05,05,00,46,9.70
2016,05,05,00,47,9.70
2016,05,05,00,48,9.70
2016,05,05,00,49,9.70
2016,05,05,00,50,9.70
2016,05,05,00,51,9.70
2016,05,05,00,52,9.60
2016,05,05,00,53,9.60
2016,05,05,00,54,9.60
2016,05,05,00,55,9.60
2016,05,05,00,56,9.60
2016,05,05,00,57,9.60
2016,05,05,00,58,9.50
2016,05,05,00,59,9.50
2016,05,05,01,00,9.40
2016,05,05,01,01,9.40
2016,05,05,01,02,9.40
2016,05,05,01,03,9.40
2016,05,05,01,04,9.40
2016,05,05,01,05,9.40
2016,05,05,01,06,9.40
2016,05,05,01,07,9.40
2016,05,05,01,08,9.40
2016,05,05,01,09,9.40
2016,05,05,01,10,9.40
2016,05,05,01,11,9.40
2016,05,05,01,12,9.40
2016,05,05,01,13,9.50
2016,05,05,01,14,9.40
2016,05,05,01,15,9.40
2016,05,05,01,16,9.40
2016,05,05,01,17,9.40
2016,05,05,01,18,9.40
2016,05,05,01,19,9.40
2016,05,05,01,20,9.40
2016,05,05,01,21,9.40
2016,05,05,01,22,9.40
2016,05,05,01,23,9.40
2016,05,05,01,24,9.40
2016,05,05,01,25,9.40
2016,05,05,01,26,9.40
2016,05,05,01,27,9.40
2016,05,05,01,28,9.40
2016,05,05,01,29,9.40
2016,05,05,01,30,9.40
2016,05,05,01,31,9.40
2016,05,05,01,32,9.40
2016,05,05,01,33,9.40
2016,05,05,01,34,9.40
2016,05,05,01,35,9.40
2016,05,05,01,36,9.40
2016,05,05,01,37,9.40
2016,05,05,01,38,9.40
2016,05,05,01,39,9.40
2016,05,05,01,40,9.40
2016,05,05,01,41,9.40
2016,05,05,01,42,9.50
2016,05,05,01,43,9.50
2016,05,05,01,44,9.50
2016,05,05,01,45,9.60
2016,05,05,01,46,9.60
2016,05,05,01,47,9.60
2016,05,05,01,48,9.60
2016,05,05,01,49,9.60
2016,05,05,01,50,9.60
2016,05,05,01,51,9.60
2016,05,05,01,52,9.60
2016,05,05,01,53,9.60
2016,05,05,01,54,9.50
2016,05,05,01,55,9.50
2016,05,05,01,56,9.50
2016,05,05,01,57,9.50
2016,05,05,01,58,9.50
2016,05,05,01,59,9.50
2016,05,05,02,00,9.50
2016,05,05,02,01,9.50
2016,05,05,02,02,9.50
2016,05,05,02,03,9.50
2016,05,05,02,04,9.50
2016,05,05,02,05,9.50
2016,05,05,02,06,9.50
2016,05,05,02,07,9.50
2016,05,05,02,08,9.50
2016,05,05,02,09,9.50
2016,05,05,02,10,9.50
2016,05,05,02,11,9.50
2016,05,05,02,12,9.50
2016,05,05,02,13,9.60
2016,05,05,02,14,9.60
2016,05,05,02,15,9.60
2016,05,05,02,16,9.60
2016,05,05,02,17,9.60
2016,05,05,02,18,9.60
2016,05,05,02,19,9.60
2016,05,05,02,20,9.60
2016,05,05,02,21,9.50
2016,05,05,02,22,9.50
2016,05,05,02,23,9.40
2016,05,05,02,24,9.40
2016,05,05,02,25,9.40
2016,05,05,02,26,9.40
2016,05,05,02,27,9.40
2016,05,05,02,28,9.30
2016,05,05,02,29,9.30
2016,05,05,02,30,9.30
2016,05,05,02,31,9.20
2016,05,05,02,32,9.20
2016,05,05,02,33,9.20
2016,05,05,02,34,9.20
2016,05,05,02,35,9.20
2016,05,05,02,36,9.20
2016,05,05,02,37,9.20
2016,05,05,02,38,9.20
2016,05,05,02,39,9.10
2016,05,05,02,40,9.10
2016,05,05,02,41,9.10
2016,05,05,02,42,9.00
2016,05,05,02,43,9.00
2016,05,05,02,44,8.90
2016,05,05,02,45,8.90
2016,05,05,02,46,8.90
2016,05,05,02,47,8.80
2016,05,05,02,48,8.80
2016,05,05,02,49,8.80
2016,05,05,02,50,8.70
2016,05,05,02,51,8.70
2016,05,05,02,52,8.60
2016,05,05,02,53,8.60
2016,05,05,02,54,8.60
2016,05,05,02,55,8.60
2016,05,05,02,56,8.50
2016,05,05,02,57,8.50
2016,05,05,02,58,8.50
2016,05,05,02,59,8.40
2016,05,05,03,00,8.40
2016,05,05,03,01,8.40
2016,05,05,03,02,8.40
2016,05,05,03,03,8.40
2016,05,05,03,04,8.40
2016,05,05,03,05,8.40
2016,05,05,03,06,8.40
2016,05,05,03,07,8.40
2016,05,05,03,08,8.40
2016,05,05,03,09,8.40
2016,05,05,03,10,8.40
2016,05,05,03,11,8.40
2016,05,05,03,12,8.40
2016,05,05,03,13,8.40
2016,05,05,03,14,8.40
2016,05,05,03,15,8.40
2016,05,05,03,16,8.30
2016,05,05,03,17,8.30
2016,05,05,03,18,8.30
2016,05,05,03,19,8.30
2016,05,05,03,20,8.30
2016,05,05,03,21,8.30
2016,05,05,03,22,8.30
2016,05,05,03,23,8.30
2016,05,05,03,24,8.30
2016,05,05,03,25,8.30
2016,05,05,03,26,8.30
2016,05,05,03,27,8.30
2016,05,05,03,28,8.30
2016,05,05,03,29,8.30
2016,05,05,03,30,8.30
2016,05,05,03,31,8.30
2016,05,05,03,32,8.30
2016,05,05,03,33,8.30
2016,05,05,03,34,8.30
2016,05,05,03,35,8.30
2016,05,05,03,36,8.30
2016,05,05,03,37,8.30
2016,05,05,03,38,8.30
2016,05,05,03,39,8.30
2016,05,05,03,40,8.30
2016,05,05,03,41,8.30
2016,05,05,03,42,8.30
2016,05,05,03,43,8.30
2016,05,05,03,44,8.30
2016,05,05,03,45,8.30
2016,05,05,03,46,8.30
2016,05,05,03,47,8.40
2016,05,05,03,48,8.30
2016,05,05,03,49,8.40
2016,05,05,03,50,8.30
2016,05,05,03,51,8.30
2016,05,05,03,52,8.30
2016,05,05,03,53,8.30
2016,05,05,03,54,8.30
2016,05,05,03,55,8.30
2016,05,05,03,56,8.30
2016,05,05,03,57,8.30
2016,05,05,03,58,8.30
2016,05,05,03,59,8.40
2016,05,05,04,00,8.40
2016,05,05,04,01,8.40
2016,05,05,04,02,8.40
2016,05,05,04,03,8.40
2016,05,05,04,04,8.40
2016,05,05,04,05,8.40
2016,05,05,04,06,8.40
2016,05,05,04,07,8.40
2016,05,05,04,08,8.40
2016,05,05,04,09,8.40
2016,05,05,04,10,8.40
2016,05,05,04,11,8.40
2016,05,05,04,12,8.40
2016,05,05,04,13,8.40
2016,05,05,04,14,8.40
2016,05,05,04,15,8.50
2016,05,05,04,16,8.50
2016,05,05,04,17,8.50
2016,05,05,04,18,8.50
2016,05,05,04,19,8.40
2016,05,05,04,20,8.40
2016,05,05,04,21,8.40
2016,05,05,04,22,8.40
2016,05,05,04,23,8.40
2016,05,05,04,24,8.40
2016,05,05,04,25,8.40
2016,05,05,04,26,8.40
2016,05,05,04,27,8.40
2016,05,05,04,28,8.40
2016,05,05,04,29,8.50
2016,05,05,04,30,8.50
2016,05,05,04,31,8.50
2016,05,05,04,32,8.50
2016,05,05,04,33,8.50
2016,05,05,04,34,8.50
2016,05,05,04,35,8.50
2016,05,05,04,36,8.50
2016,05,05,04,37,8.50
2016,05,05,04,38,8.50
2016,05,05,04,39,8.50
2016,05,05,04,40,8.50
2016,05,05,04,41,8.50
2016,05,05,04,42,8.50
2016,05,05,04,43,8.60
2016,05,05,04,44,8.60
2016,05,05,04,45,8.60
2016,05,05,04,46,8.60
2016,05,05,04,47,8.70
2016,05,05,04,48,8.70
2016,05,05,04,49,8.70
2016,05,05,04,50,8.70
2016,05,05,04,51,8.70
2016,05,05,04,52,8.70
2016,05,05,04,53,8.70
2016,05,05,04,54,8.70
2016,05,05,04,55,8.70
2016,05,05,04,56,8.70
2016,05,05,04,57,8.70
2016,05,05,04,58,8.70
2016,05,05,04,59,8.60
2016,05,05,05,00,8.60
2016,05,05,05,01,8.60
2016,05,05,05,02,8.60
2016,05,05,05,03,8.50
2016,05,05,05,04,8.50
2016,05,05,05,05,8.40
2016,05,05,05,06,8.40
2016,05,05,05,07,8.40
2016,05,05,05,08,8.40
2016,05,05,05,09,8.40
2016,05,05,05,10,8.40
2016,05,05,05,11,8.30
2016,05,05,05,12,8.30
2016,05,05,05,13,8.30
2016,05,05,05,14,8.30
2016,05,05,05,15,8.30
2016,05,05,05,16,8.30
2016,05,05,05,17,8.30
2016,05,05,05,18,8.30
2016,05,05,05,19,8.20
2016,05,05,05,20,8.20
2016,05,05,05,21,8.20
2016,05,05,05,22,8.20
2016,05,05,05,23,8.20
2016,05,05,05,24,8.20
2016,05,05,05,25,8.20
2016,05,05,05,26,8.20
2016,05,05,05,27,8.20
2016,05,05,05,28,8.20
2016,05,05,05,29,8.20
2016,05,05,05,30,8.20
2016,05,05,05,31,8.20
2016,05,05,05,32,8.20
2016,05,05,05,33,8.20
2016,05,05,05,34,8.20
2016,05,05,05,35,8.20
2016,05,05,05,36,8.20
2016,05,05,05,37,8.20
2016,05,05,05,38,8.10
2016,05,05,05,39,8.10
2016,05,05,05,40,8.10
2016,05,05,05,41,8.10
2016,05,05,05,42,8.10
2016,05,05,05,43,8.10
2016,05,05,05,44,8.10
2016,05,05,05,45,8.00
2016,05,05,05,46,8.00
2016,05,05,05,47,8.00
2016,05,05,05,48,8.00
2016,05,05,05,49,8.00
2016,05,05,05,50,7.90
2016,05,05,05,51,7.90
2016,05,05,05,52,7.90
2016,05,05,05,53,7.90
2016,05,05,05,54,7.90
2016,05,05,05,55,8.00
2016,05,05,05,56,8.00
2016,05,05,05,57,8.00
2016,05,05,05,58,8.00
2016,05,05,05,59,8.00
2016,05,05,06,00,8.00
2016,05,05,06,01,8.00
2016,05,05,06,02,8.00
2016,05,05,06,03,8.00
2016,05,05,06,04,8.00
2016,05,05,06,05,8.00
2016,05,05,06,06,8.00
2016,05,05,06,07,8.00
2016,05,05,06,08,8.00
2016,05,05,06,09,7.90
2016,05,05,06,10,8.00
2016,05,05,06,11,7.90
2016,05,05,06,12,7.90
2016,05,05,06,13,8.00
2016,05,05,06,14,8.00
2016,05,05,06,15,8.00
2016,05,05,06,16,8.00
2016,05,05,06,17,8.00
2016,05,05,06,18,8.00
2016,05,05,06,19,8.00
2016,05,05,06,20,8.00
2016,05,05,06,21,8.00
2016,05,05,06,22,8.00
2016,05,05,06,23,8.00
2016,05,05,06,24,8.10
2016,05,05,06,25,8.10
2016,05,05,06,26,8.10
2016,05,05,06,27,8.10
2016,05,05,06,28,8.10
2016,05,05,06,29,8.10
2016,05,05,06,30,8.10
2016,05,05,06,31,8.10
2016,05,05,06,32,8.10
2016,05,05,06,33,8.10
2016,05,05,06,34,8.10
2016,05,05,06,35,8.10
2016,05,05,06,36,8.20
2016,05,05,06,37,8.20
2016,05,05,06,38,8.20
2016,05,05,06,39,8.20
2016,05,05,06,40,8.20
2016,05,05,06,41,8.20
2016,05,05,06,42,8.30
2016,05,05,06,43,8.30
2016,05,05,06,44,8.30
2016,05,05,06,45,8.40
2016,05,05,06,46,8.40
2016,05,05,06,47,8.50
2016,05,05,06,48,8.60
2016,05,05,06,49,8.60
2016,05,05,06,50,8.70
2016,05,05,06,51,8.70
2016,05,05,06,52,8.80
2016,05,05,06,53,8.80
2016,05,05,06,54,8.90
2016,05,05,06,55,8.90
2016,05,05,06,56,9.00
2016,05,05,06,57,9.10
2016,05,05,06,58,9.10
2016,05,05,06,59,9.20
2016,05,05,07,00,9.20
2016,05,05,07,01,9.30
2016,05,05,07,02,9.30
2016,05,05,07,03,9.30
2016,05,05,07,04,9.30
2016,05,05,07,05,9.40
2016,05,05,07,06,9.40
2016,05,05,07,07,9.50
2016,05,05,07,08,9.50
2016,05,05,07,09,9.60
2016,05,05,07,10,9.60
2016,05,05,07,11,9.60
2016,05,05,07,12,9.60
2016,05,05,07,13,9.70
2016,05,05,07,14,9.70
2016,05,05,07,15,9.70
2016,05,05,07,16,9.70
2016,05,05,07,17,9.70
2016,05,05,07,18,9.70
2016,05,05,07,19,9.80
2016,05,05,07,20,9.80
2016,05,05,07,21,9.80
2016,05,05,07,22,9.80
2016,05,05,07,23,9.80
2016,05,05,07,24,9.90
2016,05,05,07,25,9.90
2016,05,05,07,26,10.00
2016,05,05,07,27,10.00
2016,05,05,07,28,10.10
2016,05,05,07,29,10.10
2016,05,05,07,30,10.20
2016,05,05,07,31,10.20
2016,05,05,07,32,10.30
2016,05,05,07,33,10.30
2016,05,05,07,34,10.30
2016,05,05,07,35,10.30
2016,05,05,07,36,10.30
2016,05,05,07,37,10.30
2016,05,05,07,38,10.40
2016,05,05,07,39,10.40
2016,05,05,07,40,10.40
2016,05,05,07,41,10.50
2016,05,05,07,42,10.50
2016,05,05,07,43,10.50
2016,05,05,07,44,10.50
2016,05,05,07,45,10.50
2016,05,05,07,46,10.50
2016,05,05,07,47,10.50
2016,05,05,07,48,10.60
2016,05,05,07,49,10.60
2016,05,05,07,50,10.60
2016,05,05,07,51,10.60
2016,05,05,07,52,10.60
2016,05,05,07,53,10.60
2016,05,05,07,54,10.70
2016,05,05,07,55,10.70
2016,05,05,07,56,10.70
2016,05,05,07,57,10.80
2016,05,05,07,58,10.80
2016,05,05,07,59,10.80
2016,05,05,08,00,10.80
2016,05,05,08,01,10.80
2016,05,05,08,02,10.90
2016,05,05,08,03,10.90
2016,05,05,08,04,10.90
2016,05,05,08,05,10.90
2016,05,05,08,06,10.90
2016,05,05,08,07,10.90
2016,05,05,08,08,10.90
2016,05,05,08,09,11.00
2016,05,05,08,10,10.90
2016,05,05,08,11,11.00
2016,05,05,08,12,11.00
2016,05,05,08,13,11.10
2016,05,05,08,14,11.10
2016,05,05,08,15,11.20
2016,05,05,08,16,11.20
2016,05,05,08,17,11.10
2016,05,05,08,18,11.10
2016,05,05,08,19,11.10
2016,05,05,08,20,11.00
2016,05,05,08,21,11.00
2016,05,05,08,22,11.00
2016,05,05,08,23,11.00
2016,05,05,08,24,11.10
2016,05,05,08,25,11.10
2016,05,05,08,26,11.10
2016,05,05,08,27,11.10
2016,05,05,08,28,11.10
2016,05,05,08,29,11.10
2016,05,05,08,30,11.20
2016,05,05,08,31,11.20
2016,05,05,08,32,11.20
2016,05,05,08,33,11.20
2016,05,05,08,34,11.10
2016,05,05,08,35,11.10
2016,05,05,08,36,11.10
2016,05,05,08,37,11.10
2016,05,05,08,38,11.10
2016,05,05,08,39,11.10
2016,05,05,08,40,11.10
2016,05,05,08,41,11.10
2016,05,05,08,42,11.10
2016,05,05,08,43,11.20
2016,05,05,08,44,11.20
2016,05,05,08,45,11.20
2016,05,05,08,46,11.20
2016,05,05,08,47,11.30
2016,05,05,08,48,11.30
2016,05,05,08,49,11.30
2016,05,05,08,50,11.40
2016,05,05,08,51,11.40
2016,05,05,08,52,11.40
2016,05,05,08,53,11.50
2016,05,05,08,54,11.60
2016,05,05,08,55,11.60
2016,05,05,08,56,11.70
2016,05,05,08,57,11.80
2016,05,05,08,58,11.80
2016,05,05,08,59,11.90
2016,05,05,09,00,11.90
2016,05,05,09,01,12.00
2016,05,05,09,02,12.00
2016,05,05,09,03,12.00
2016,05,05,09,04,12.10
2016,05,05,09,05,12.10
2016,05,05,09,06,12.10
2016,05,05,09,07,12.00
2016,05,05,09,08,12.00
2016,05,05,09,09,11.90
2016,05,05,09,10,11.90
2016,05,05,09,11,11.90
2016,05,05,09,12,11.90
2016,05,05,09,13,11.90
2016,05,05,09,14,12.00
2016,05,05,09,15,12.10
2016,05,05,09,16,12.10
2016,05,05,09,17,12.10
2016,05,05,09,18,12.10
2016,05,05,09,19,12.00
2016,05,05,09,20,11.90
2016,05,05,09,21,11.90
2016,05,05,09,22,11.90
2016,05,05,09,23,11.80
2016,05,05,09,24,11.80
2016,05,05,09,25,11.70
2016,05,05,09,26,11.80
2016,05,05,09,27,11.80
2016,05,05,09,28,11.80
2016,05,05,09,29,11.80
2016,05,05,09,30,11.80
2016,05,05,09,31,11.80
2016,05,05,09,32,11.90
2016,05,05,09,33,11.90
2016,05,05,09,34,11.90
2016,05,05,09,35,11.90
2016,05,05,09,36,11.90
2016,05,05,09,37,11.90
2016,05,05,09,38,11.90
2016,05,05,09,39,11.90
2016,05,05,09,40,12.00
2016,05,05,09,41,12.00
2016,05,05,09,42,12.10
2016,05,05,09,43,12.10
2016,05,05,09,44,12.20
2016,05,05,09,45,12.20
2016,05,05,09,46,12.30
2016,05,05,09,47,12.50
2016,05,05,09,48,12.60
2016,05,05,09,49,12.60
2016,05,05,09,50,12.70
2016,05,05,09,51,12.80
2016,05,05,09,52,12.80
2016,05,05,09,53,12.90
2016,05,05,09,54,12.90
2016,05,05,09,55,13.00
2016,05,05,09,56,13.10
2016,05,05,09,57,13.20
2016,05,05,09,58,13.20
2016,05,05,09,59,13.30
2016,05,05,10,00,13.30
2016,05,05,10,01,13.20
2016,05,05,10,02,13.20
2016,05,05,10,03,13.20
2016,05,05,10,04,13.20
2016,05,05,10,05,13.10
2016,05,05,10,06,13.10
2016,05,05,10,07,13.10
2016,05,05,10,08,13.00
2016,05,05,10,09,13.00
2016,05,05,10,10,12.90
2016,05,05,10,11,12.90
2016,05,05,10,12,13.00
2016,05,05,10,13,13.00
2016,05,05,10,14,13.10
2016,05,05,10,15,13.10
2016,05,05,10,16,13.10
2016,05,05,10,17,13.20
2016,05,05,10,18,13.30
2016,05,05,10,19,13.40
2016,05,05,10,20,13.50
2016,05,05,10,21,13.60
2016,05,05,10,22,13.60
2016,05,05,10,23,13.60
2016,05,05,10,24,13.60
2016,05,05,10,25,13.60
2016,05,05,10,26,13.60
2016,05,05,10,27,13.70
2016,05,05,10,28,13.80
2016,05,05,10,29,13.80
2016,05,05,10,30,13.80
2016,05,05,10,31,13.70
2016,05,05,10,32,13.70
2016,05,05,10,33,13.70
2016,05,05,10,34,13.70
2016,05,05,10,35,13.70
2016,05,05,10,36,13.70
2016,05,05,10,37,13.80
2016,05,05,10,38,13.80
2016,05,05,10,39,13.90
2016,05,05,10,40,14.00
2016,05,05,10,41,14.00
2016,05,05,10,42,14.10
2016,05,05,10,43,14.20
2016,05,05,10,44,14.30
2016,05,05,10,45,14.40
2016,05,05,10,46,14.40
2016,05,05,10,47,14.40
2016,05,05,10,48,14.40
2016,05,05,10,49,14.50
2016,05,05,10,50,14.60
2016,05,05,10,51,14.60
2016,05,05,10,52,14.60
2016,05,05,10,53,14.50
2016,05,05,10,54,14.30
2016,05,05,10,55,14.20
2016,05,05,10,56,14.00
2016,05,05,10,57,13.90
2016,05,05,10,58,13.70
2016,05,05,10,59,13.70
2016,05,05,11,00,13.70
2016,05,05,11,01,13.70
2016,05,05,11,02,13.80
2016,05,05,11,03,13.80
2016,05,05,11,04,13.80
2016,05,05,11,05,13.70
2016,05,05,11,06,13.70
2016,05,05,11,07,13.60
2016,05,05,11,08,13.60
2016,05,05,11,09,13.50
2016,05,05,11,10,13.50
2016,05,05,11,11,13.50
2016,05,05,11,12,13.60
2016,05,05,11,13,13.60
2016,05,05,11,14,13.60
2016,05,05,11,15,13.60
2016,05,05,11,16,13.60
2016,05,05,11,17,13.60
2016,05,05,11,18,13.50
2016,05,05,11,19,13.40
2016,05,05,11,20,13.40
2016,05,05,11,21,13.30
2016,05,05,11,22,13.30
2016,05,05,11,23,13.30
2016,05,05,11,24,13.30
2016,05,05,11,25,13.30
2016,05,05,11,26,13.30
2016,05,05,11,27,13.30
2016,05,05,11,28,13.30
2016,05,05,11,29,13.30
2016,05,05,11,30,13.30
2016,05,05,11,31,13.40
2016,05,05,11,32,13.40
2016,05,05,11,33,13.40
2016,05,05,11,34,13.40
2016,05,05,11,35,13.30
2016,05,05,11,36,13.30
2016,05,05,11,37,13.30
2016,05,05,11,38,13.30
2016,05,05,11,39,13.30
2016,05,05,11,40,13.30
2016,05,05,11,41,13.30
2016,05,05,11,42,13.30
2016,05,05,11,43,13.30
2016,05,05,11,44,13.40
2016,05,05,11,45,13.40
2016,05,05,11,46,13.40
2016,05,05,11,47,13.40
2016,05,05,11,48,13.40
2016,05,05,11,49,13.40
2016,05,05,11,50,13.40
2016,05,05,11,51,13.40
2016,05,05,11,52,13.40
2016,05,05,11,53,13.40
2016,05,05,11,54,13.30
2016,05,05,11,55,13.30
2016,05,05,11,56,13.30
2016,05,05,11,57,13.40
2016,05,05,11,58,13.40
2016,05,05,11,59,13.50
2016,05,05,12,00,13.50
2016,05,05,12,01,13.50
2016,05,05,12,02,13.60
2016,05,05,12,03,13.60
2016,05,05,12,04,13.60
2016,05,05,12,05,13.60
2016,05,05,12,06,13.60
2016,05,05,12,07,13.60
2016,05,05,12,08,13.60
2016,05,05,12,09,13.60
2016,05,05,12,10,13.60
2016,05,05,12,11,13.60
2016,05,05,12,12,13.70
2016,05,05,12,13,13.70
2016,05,05,12,14,13.80
2016,05,05,12,15,13.80
2016,05,05,12,16,13.80
2016,05,05,12,17,13.90
2016,05,05,12,18,13.90
2016,05,05,12,19,14.00
2016,05,05,12,20,14.00
2016,05,05,12,21,14.10
2016,05,05,12,22,14.10
2016,05,05,12,23,14.10
2016,05,05,12,24,14.20
2016,05,05,12,25,14.20
2016,05,05,12,26,14.20
2016,05,05,12,27,14.10
2016,05,05,12,28,14.10
2016,05,05,12,29,14.10
2016,05,05,12,30,14.10
2016,05,05,12,31,14.10
2016,05,05,12,32,14.00
2016,05,05,12,33,14.00
2016,05,05,12,34,14.10
2016,05,05,12,35,14.10
2016,05,05,12,36,14.20
2016,05,05,12,37,14.20
2016,05,05,12,38,14.20
2016,05,05,12,39,14.30
2016,05,05,12,40,14.50
2016,05,05,12,41,14.60
2016,05,05,12,42,14.70
2016,05,05,12,43,14.80
2016,05,05,12,44,14.80
2016,05,05,12,45,14.90
2016,05,05,12,46,14.90
2016,05,05,12,47,15.00
2016,05,05,12,48,15.00
2016,05,05,12,49,15.00
2016,05,05,12,50,15.00
2016,05,05,12,51,15.00
2016,05,05,12,52,15.00
2016,05,05,12,53,15.00
2016,05,05,12,54,14.80
2016,05,05,12,55,14.80
2016,05,05,12,56,14.90
2016,05,05,12,57,15.00
2016,05,05,12,58,15.00
2016,05,05,12,59,15.00
2016,05,05,13,00,15.00
2016,05,05,13,01,15.00
2016,05,05,13,02,15.00
2016,05,05,13,03,15.00
2016,05,05,13,04,15.00
2016,05,05,13,05,15.00
2016,05,05,13,06,15.00
2016,05,05,13,07,15.00
2016,05,05,13,08,15.00
2016,05,05,13,09,15.00
2016,05,05,13,10,15.10
2016,05,05,13,11,15.20
2016,05,05,13,12,15.20
2016,05,05,13,13,15.20
2016,05,05,13,14,15.30
2016,05,05,13,15,15.30
2016,05,05,13,16,15.40
2016,05,05,13,17,15.40
2016,05,05,13,18,15.40
2016,05,05,13,19,15.50
2016,05,05,13,20,15.50
2016,05,05,13,21,15.60
2016,05,05,13,22,15.70
2016,05,05,13,23,15.70
2016,05,05,13,24,15.80
2016,05,05,13,25,15.90
2016,05,05,13,26,15.90
2016,05,05,13,27,15.90
2016,05,05,13,28,15.90
2016,05,05,13,29,15.90
2016,05,05,13,30,15.90
2016,05,05,13,31,15.80
2016,05,05,13,32,15.70
2016,05,05,13,33,15.70
2016,05,05,13,34,15.70
2016,05,05,13,35,15.80
2016,05,05,13,36,15.80
2016,05,05,13,37,15.80
2016,05,05,13,38,15.90
2016,05,05,13,39,16.00
2016,05,05,13,40,16.10
2016,05,05,13,41,16.10
2016,05,05,13,42,16.20
2016,05,05,13,43,16.20
2016,05,05,13,44,16.30
2016,05,05,13,45,16.50
2016,05,05,13,46,16.60
2016,05,05,13,47,16.70
2016,05,05,13,48,16.80
2016,05,05,13,49,16.80
2016,05,05,13,50,16.70
2016,05,05,13,51,16.60
2016,05,05,13,52,16.50
2016,05,05,13,53,16.40
2016,05,05,13,54,16.40
2016,05,05,13,55,16.40
2016,05,05,13,56,16.40
2016,05,05,13,57,16.30
2016,05,05,13,58,16.30
2016,05,05,13,59,16.20
2016,05,05,14,00,16.10
2016,05,05,14,01,16.10
2016,05,05,14,02,16.20
2016,05,05,14,03,16.20
2016,05,05,14,04,16.30
2016,05,05,14,05,16.30
2016,05,05,14,06,16.40
2016,05,05,14,07,16.50
2016,05,05,14,08,16.50
2016,05,05,14,09,16.50
2016,05,05,14,10,16.50
2016,05,05,14,11,16.60
2016,05,05,14,12,16.60
2016,05,05,14,13,16.70
2016,05,05,14,14,16.70
2016,05,05,14,15,16.70
2016,05,05,14,16,16.80
2016,05,05,14,17,16.70
2016,05,05,14,18,16.70
2016,05,05,14,19,16.70
2016,05,05,14,20,16.70
2016,05,05,14,21,16.60
2016,05,05,14,22,16.60
2016,05,05,14,23,16.60
2016,05,05,14,24,16.60
2016,05,05,14,25,16.70
2016,05,05,14,26,16.70
2016,05,05,14,27,16.70
2016,05,05,14,28,16.70
2016,05,05,14,29,16.80
2016,05,05,14,30,16.80
2016,05,05,14,31,16.80
2016,05,05,14,32,16.90
2016,05,05,14,33,17.00
2016,05,05,14,34,17.10
2016,05,05,14,35,17.20
2016,05,05,14,36,17.20
2016,05,05,14,37,17.30
2016,05,05,14,38,17.30
2016,05,05,14,39,17.40
2016,05,05,14,40,17.40
2016,05,05,14,41,17.40
2016,05,05,14,42,17.40
2016,05,05,14,43,17.40
2016,05,05,14,44,17.40
2016,05,05,14,45,17.40
2016,05,05,14,46,17.50
2016,05,05,14,47,17.60
2016,05,05,14,48,17.60
2016,05,05,14,49,17.70
2016,05,05,14,50,17.70
2016,05,05,14,51,17.70
2016,05,05,14,52,17.70
2016,05,05,14,53,17.70
2016,05,05,14,54,17.70
2016,05,05,14,55,17.70
2016,05,05,14,56,17.70
2016,05,05,14,57,17.70
2016,05,05,14,58,17.70
2016,05,05,14,59,17.70
2016,05,05,15,00,17.70
2016,05,05,15,01,17.70
2016,05,05,15,02,17.70
2016,05,05,15,03,17.80
2016,05,05,15,04,17.90
2016,05,05,15,05,17.90
2016,05,05,15,06,17.90
2016,05,05,15,07,17.90
2016,05,05,15,08,17.90
2016,05,05,15,09,17.90
2016,05,05,15,10,17.90
2016,05,05,15,11,17.90
2016,05,05,15,12,17.90
2016,05,05,15,13,17.90
2016,05,05,15,14,17.90
2016,05,05,15,15,17.80
2016,05,05,15,16,17.80
2016,05,05,15,17,17.80
2016,05,05,15,18,17.70
2016,05,05,15,19,17.70
2016,05,05,15,20,17.70
2016,05,05,15,21,17.70
2016,05,05,15,22,17.70
2016,05,05,15,23,17.70
2016,05,05,15,24,17.60
2016,05,05,15,25,17.60
2016,05,05,15,26,17.60
2016,05,05,15,27,17.60
2016,05,05,15,28,17.60
2016,05,05,15,29,17.60
2016,05,05,15,30,17.60
2016,05,05,15,31,17.60
2016,05,05,15,32,17.60
2016,05,05,15,33,17.60
2016,05,05,15,34,17.70
2016,05,05,15,35,17.70
2016,05,05,15,36,17.80
2016,05,05,15,37,17.90
2016,05,05,15,38,17.90
2016,05,05,15,39,17.90
2016,05,05,15,40,18.00
2016,05,05,15,41,18.00
2016,05,05,15,42,18.00
2016,05,05,15,43,17.90
2016,05,05,15,44,17.90
2016,05,05,15,45,17.90
2016,05,05,15,46,18.00
2016,05,05,15,47,18.00
2016,05,05,15,48,18.10
2016,05,05,15,49,18.20
2016,05,05,15,50,18.30
2016,05,05,15,51,18.30
2016,05,05,15,52,18.30
2016,05,05,15,53,18.30
2016,05,05,15,54,18.30
2016,05,05,15,55,18.30
2016,05,05,15,56,18.30
2016,05,05,15,57,18.30
2016,05,05,15,58,18.30
2016,05,05,15,59,18.30
2016,05,05,16,00,18.20
2016,05,05,16,01,18.30
2016,05,05,16,02,18.30
2016,05,05,16,03,18.40
2016,05,05,16,04,18.40
2016,05,05,16,05,18.50
2016,05,05,16,06,18.60
2016,05,05,16,07,18.60
2016,05,05,16,08,18.60
2016,05,05,16,09,18.60
2016,05,05,16,10,18.60
2016,05,05,16,11,18.70
2016,05,05,16,12,18.80
2016,05,05,16,13,18.80
2016,05,05,16,14,18.80
2016,05,05,16,15,18.80
2016,05,05,16,16,18.80
2016,05,05,16,17,18.80
2016,05,05,16,18,18.80
2016,05,05,16,19,18.80
2016,05,05,16,20,18.80
2016,05,05,16,21,18.90
2016,05,05,16,22,18.90
2016,05,05,16,23,19.00
2016,05,05,16,24,19.10
2016,05,05,16,25,19.10
2016,05,05,16,26,19.20
2016,05,05,16,27,19.30
2016,05,05,16,28,19.40
2016,05,05,16,29,19.50
2016,05,05,16,30,19.60
2016,05,05,16,31,19.70
2016,05,05,16,32,19.80
2016,05,05,16,33,19.80
2016,05,05,16,34,19.80
2016,05,05,16,35,19.80
2016,05,05,16,36,19.80
2016,05,05,16,37,19.70
2016,05,05,16,38,19.70
2016,05,05,16,39,19.70
2016,05,05,16,40,19.80
2016,05,05,16,41,19.80
2016,05,05,16,42,19.80
2016,05,05,16,43,19.80
2016,05,05,16,44,19.80
2016,05,05,16,45,19.80
2016,05,05,16,46,19.80
2016,05,05,16,47,19.80
2016,05,05,16,48,19.80
2016,05,05,16,49,19.80
2016,05,05,16,50,19.80
2016,05,05,16,51,19.80
2016,05,05,16,52,19.80
2016,05,05,16,53,19.90
2016,05,05,16,54,19.90
2016,05,05,16,55,19.90
2016,05,05,16,56,19.90
2016,05,05,16,57,19.90
2016,05,05,16,58,19.90
2016,05,05,16,59,19.90
2016,05,05,17,00,19.90
2016,05,05,17,01,19.90
2016,05,05,17,02,19.90
2016,05,05,17,03,19.90
2016,05,05,17,04,19.80
2016,05,05,17,05,19.80
2016,05,05,17,06,19.80
2016,05,05,17,07,19.80
2016,05,05,17,08,19.80
2016,05,05,17,09,19.80
2016,05,05,17,10,19.80
2016,05,05,17,11,19.80
2016,05,05,17,12,19.80
2016,05,05,17,13,19.80
2016,05,05,17,14,19.90
2016,05,05,17,15,20.00
2016,05,05,17,16,20.00
2016,05,05,17,17,20.10
2016,05,05,17,18,20.10
2016,05,05,17,19,20.20
2016,05,05,17,20,20.20
2016,05,05,17,21,20.30
2016,05,05,17,22,20.40
2016,05,05,17,23,20.50
2016,05,05,17,24,20.60
2016,05,05,17,25,20.60
2016,05,05,17,26,20.60
2016,05,05,17,27,20.50
2016,05,05,17,28,20.40
2016,05,05,17,29,20.40
2016,05,05,17,30,20.40
2016,05,05,17,31,20.40
2016,05,05,17,32,20.40
2016,05,05,17,33,20.40
2016,05,05,17,34,20.50
2016,05,05,17,35,20.50
2016,05,05,17,36,20.60
2016,05,05,17,37,20.60
2016,05,05,17,38,20.70